Date String (YYYY-MM-DD hh:mm:ss) UTC,Instrument flags,absolute air pressure of the measurement (hPa),sample flow rate (lpm),inlet stack bypass flow (lpm),air temperature of the measurement (°C),ambient temperature measured by the external sensor (°C),aerosol sample conditioner tube jacket temperature (°C),OPC LED temperature (°C),internal box temperature (°C),relative humidity of the measurement (%),span deviation,mass concentration of particles derived from Lorenz-Mie calculation of OPC scattering (μg/m³),mass concentration of particles derived from Lorenz-Mie calculation of OPC scattering (μg/m³),mass concentration of particles derived from Lorenz-Mie calculation of OPC scattering (μg/m³)
DateTimeUTC,F1_M11,P_M11,Q1_M11,Q2_M11,T1_M11,T2_M11,T3_M11,T4_M11,T5_M11,U1_M11,ZSPAN_M11,X0_M11,X2_M11,X1_M11
2024-03-03 23:00:00,SystemResetWarning,0815.8,5.00,000.00,018.8,018.1,000.0,027.1,020.4,13.8,0000.0,0002.71,0000.84,0000.28
2024-03-03 23:01:00,SystemResetWarning,0815.8,5.00,000.00,018.8,018.1,000.0,027.1,020.4,13.9,0000.0,0002.82,0000.86,0000.28
2024-03-03 23:02:00,SystemResetWarning,0815.8,5.00,000.00,018.8,018.1,000.0,027.1,020.4,13.9,0000.0,0002.41,0000.83,0000.27
2024-03-03 23:03:00,SystemResetWarning,0815.8,4.99,000.00,018.8,018.1,000.0,027.1,020.4,14.2,0000.0,0002.07,0000.81,0000.26
2024-03-03 23:04:00,SystemResetWarning,0815.8,5.00,000.00,018.8,018.1,000.0,027.1,020.4,14.3,0000.0,0002.14,0000.77,0000.26
2024-03-03 23:05:00,SystemResetWarning,0815.9,5.01,000.00,018.8,018.1,000.0,027.1,020.4,14.4,0000.0,0002.16,0000.73,0000.27
2024-03-03 23:06:00,SystemResetWarning,0815.8,5.01,000.00,018.8,018.1,000.0,027.1,020.4,14.5,0000.0,0002.60,0000.72,0000.27
2024-03-03 23:07:00,SystemResetWarning,0815.8,5.00,000.00,018.8,018.1,000.0,027.1,020.4,14.6,0000.0,0003.49,0000.74,0000.27
2024-03-03 23:08:00,SystemResetWarning,0815.8,5.00,000.00,018.8,018.1,000.0,027.1,020.4,14.8,0000.0,0003.73,0000.73,0000.27
2024-03-03 23:09:00,SystemResetWarning,0815.9,4.99,000.00,018.8,018.1,000.0,027.1,020.4,14.9,0000.0,0005.20,0000.71,0000.27
2024-03-03 23:10:00,SystemResetWarning,0816.0,4.99,000.00,018.8,018.0,000.0,027.1,020.3,14.9,0000.0,0005.37,0000.73,0000.27
2024-03-03 23:11:00,SystemResetWarning,0816.0,5.00,000.00,018.8,018.0,000.0,027.1,020.4,14.9,0000.0,0005.56,0000.70,0000.28
2024-03-03 23:12:00,SystemResetWarning,0816.0,5.01,000.00,018.8,018.0,000.0,027.1,020.4,14.9,0000.0,0006.36,0000.69,0000.27
2024-03-03 23:13:00,SystemResetWarning,0816.0,5.01,000.00,018.8,018.0,000.0,027.1,020.4,14.6,0000.0,0006.23,0000.64,0000.26
2024-03-03 23:14:00,SystemResetWarning,0816.0,5.01,000.00,018.8,018.0,000.0,027.1,020.4,14.6,0000.0,0006.91,0000.65,0000.26
2024-03-03 23:15:00,SystemResetWarning,0815.9,5.00,000.00,018.8,018.0,000.0,027.1,020.4,14.7,0000.0,0007.41,0000.65,0000.26
2024-03-03 23:16:00,SystemResetWarning,0816.0,5.00,000.00,018.8,018.0,000.0,027.1,020.4,14.7,0000.0,0007.45,0000.67,0000.26
2024-03-03 23:17:00,SystemResetWarning,0816.0,5.00,000.00,018.8,018.0,000.0,027.1,020.4,14.8,0000.0,0007.28,0000.68,0000.26
2024-03-03 23:18:00,SystemResetWarning,0815.8,5.00,000.00,018.7,018.0,000.0,027.1,020.4,14.4,0000.0,0007.14,0000.68,0000.27
2024-03-03 23:19:00,SystemResetWarning,0815.8,5.00,000.00,018.7,018.0,000.0,027.1,020.4,13.9,0000.0,0006.86,0000.70,0000.27
2024-03-03 23:20:00,SystemResetWarning,0815.9,4.99,000.00,018.7,018.0,000.0,027.1,020.4,13.8,0000.0,0005.28,0000.70,0000.27
2024-03-03 23:21:00,SystemResetWarning,0815.8,5.00,000.00,018.7,018.0,000.0,027.1,020.4,13.8,0000.0,0005.19,0000.71,0000.28
2024-03-03 23:22:00,SystemResetWarning,0815.9,5.01,000.00,018.7,018.0,000.0,027.1,020.4,13.8,0000.0,0004.88,0000.68,0000.27
2024-03-03 23:23:00,SystemResetWarning,0815.9,4.99,000.00,018.7,018.0,000.0,027.1,020.4,13.7,0000.0,0004.16,0000.71,0000.28
2024-03-03 23:24:00,SystemResetWarning,0815.9,4.99,000.00,018.7,018.0,000.0,027.1,020.4,13.8,0000.0,0004.31,0000.73,0000.29
2024-03-03 23:25:00,SystemResetWarning,0815.9,5.00,000.00,018.7,018.0,000.0,027.1,020.4,14.0,0000.0,0003.60,0000.73,0000.30
2024-03-03 23:26:00,SystemResetWarning,0815.9,5.00,000.00,018.7,018.0,000.0,027.1,020.4,14.1,0000.0,0003.19,0000.71,0000.30
2024-03-03 23:27:00,SystemResetWarning,0815.9,5.00,000.00,018.7,018.0,000.0,027.1,020.4,14.2,0000.0,0003.09,0000.69,0000.30
2024-03-03 23:28:00,SystemResetWarning,0815.9,5.00,000.00,018.7,018.0,000.0,027.1,020.4,14.2,0000.0,0002.72,0000.66,0000.30
2024-03-03 23:29:00,SystemResetWarning,0816.0,5.00,000.00,018.7,018.1,000.0,027.1,020.4,14.2,0000.0,0002.18,0000.65,0000.30
2024-03-03 23:30:00,SystemResetWarning,0815.8,5.01,000.00,018.7,018.1,000.0,027.1,020.4,14.1,0000.0,0002.13,0000.63,0000.30
2024-03-03 23:31:00,SystemResetWarning,0815.9,4.99,000.00,018.8,018.1,000.0,027.1,020.4,14.2,0000.0,0002.09,0000.63,0000.30
2024-03-03 23:32:00,SystemResetWarning,0815.9,4.99,000.00,018.8,018.1,000.0,027.1,020.4,14.3,0000.0,0001.98,0000.59,0000.30
2024-03-03 23:33:00,SystemResetWarning,0816.0,5.00,000.00,018.8,018.1,000.0,027.1,020.4,14.5,0000.0,0002.01,0000.58,0000.30
2024-03-03 23:34:00,SystemResetWarning,0816.1,5.01,000.00,018.8,018.1,000.0,027.1,020.4,14.5,0000.0,0003.06,0000.56,0000.29
2024-03-03 23:35:00,SystemResetWarning,0816.1,5.01,000.00,018.8,018.1,000.0,027.1,020.4,14.7,0000.0,0002.98,0000.55,0000.29
2024-03-03 23:36:00,SystemResetWarning,0816.0,5.00,000.00,018.8,018.1,000.0,027.1,020.5,14.5,0000.0,0002.91,0000.54,0000.29
2024-03-03 23:37:00,SystemResetWarning,0816.0,4.98,000.00,018.8,018.1,000.0,027.1,020.5,14.5,0000.0,0002.57,0000.57,0000.28
2024-03-03 23:38:00,SystemResetWarning,0816.0,5.01,000.00,018.8,018.1,000.0,027.1,020.5,14.3,0000.0,0002.62,0000.62,0000.28
2024-03-03 23:39:00,SystemResetWarning,0815.9,5.01,000.00,018.8,018.2,000.0,027.1,020.5,14.1,0000.0,0002.63,0000.63,0000.27
2024-03-03 23:40:00,SystemResetWarning,0815.9,5.00,000.00,018.8,018.2,000.0,027.2,020.5,14.2,0000.0,0002.53,0000.61,0000.27
2024-03-03 23:41:00,SystemResetWarning,0815.9,4.99,000.00,018.8,018.2,000.0,027.2,020.5,14.3,0000.0,0002.62,0000.60,0000.26
2024-03-03 23:42:00,SystemResetWarning,0815.8,5.00,000.00,018.8,018.2,000.0,027.2,020.5,14.0,0000.0,0002.68,0000.60,0000.26
2024-03-03 23:43:00,SystemResetWarning,0815.8,4.99,000.00,018.8,018.2,000.0,027.2,020.6,14.1,0000.0,0002.75,0000.63,0000.27
2024-03-03 23:44:00,SystemResetWarning,0815.8,5.00,000.00,018.8,018.2,000.0,027.2,020.6,14.1,0000.0,0002.72,0000.67,0000.27
2024-03-03 23:45:00,SystemResetWarning,0815.8,5.01,000.00,018.8,018.2,000.0,027.2,020.6,14.1,0000.0,0001.91,0000.70,0000.26
2024-03-03 23:46:00,SystemResetWarning,0815.8,5.01,000.00,018.8,018.2,000.0,027.2,020.6,14.2,0000.0,0003.57,0000.70,0000.26
2024-03-03 23:47:00,SystemResetWarning,0815.8,5.00,000.00,018.8,018.2,000.0,027.2,020.6,14.1,0000.0,0004.62,0000.70,0000.26
2024-03-03 23:48:00,SystemResetWarning,0815.8,4.99,000.00,018.8,018.2,000.0,027.2,020.6,13.9,0000.0,0005.52,0000.67,0000.26
2024-03-03 23:49:00,SystemResetWarning,0815.8,5.00,000.00,018.9,018.3,000.0,027.2,020.6,13.9,0000.0,0005.93,0000.62,0000.27
2024-03-03 23:50:00,SystemResetWarning,0815.9,4.99,000.00,018.9,018.3,000.0,027.2,020.6,13.9,0000.0,0006.42,0000.65,0000.27
2024-03-03 23:51:00,SystemResetWarning,0815.8,5.00,000.00,018.9,018.3,000.0,027.2,020.6,13.9,0000.0,0006.91,0000.69,0000.28
2024-03-03 23:52:00,SystemResetWarning,0815.8,5.00,000.00,018.9,018.2,000.0,027.2,020.6,13.8,0000.0,0006.85,0000.69,0000.28
2024-03-03 23:53:00,SystemResetWarning,0815.8,5.01,000.00,018.9,018.2,000.0,027.3,020.6,13.9,0000.0,0008.16,0000.69,0000.27
2024-03-03 23:54:00,SystemResetWarning,0815.8,5.01,000.00,018.9,018.2,000.0,027.3,020.6,13.9,0000.0,0008.57,0000.70,0000.27
2024-03-03 23:55:00,SystemResetWarning,0815.8,4.99,000.00,018.9,018.2,000.0,027.3,020.6,13.8,0000.0,0008.57,0000.68,0000.26
2024-03-03 23:56:00,SystemResetWarning,0815.8,4.98,000.00,018.9,018.2,000.0,027.3,020.6,13.9,0000.0,0008.49,0000.66,0000.27
2024-03-03 23:57:00,SystemResetWarning,0815.8,5.01,000.00,018.9,018.2,000.0,027.3,020.6,13.9,0000.0,0007.68,0000.66,0000.27
2024-03-03 23:58:00,SystemResetWarning,0815.9,5.00,000.00,018.9,018.2,000.0,027.3,020.6,13.8,0000.0,0007.37,0000.64,0000.27
2024-03-03 23:59:00,SystemResetWarning,0815.9,5.01,000.00,018.9,018.2,000.0,027.3,020.6,13.9,0000.0,0006.70,0000.65,0000.26
